Location: Firdgum
(53.2488°N, 5.5615°E)
Time: 05:56:06
(UTC+00:00)

Okean 1-7 - Pass Details

Date: 08 December 2019
Orbit: 591 x 619 km, 82.5° (Epoch: 21 January)

Event Time Altitude Azimuth Distance (km) Brightness Sun altitude
Exits shadow 06:20:12 14° 306° (NW) 1,717 4.7 -10.8°
Maximum altitude 06:22:02 18° 276° (W) 1,522 4.5 -10.6°
Drops below altitude 10° 06:25:02 10° 233° (SW) 1,985 5.4 -10.2°
Sets 06:27:48 0° 215° (SW) 2,883 6.4 -9.8°
